Theta_e
311 308 309 308 307 307 306 307 307 308 310 311 312 315 319 319 318 319 319 319 321 322 321 321 320 320 321 322 322 323 322 320 321 322 321 321 321 322 322 322 323 322 320 319 319 320 320 320 320 321 321 321 322 322 321 321 321 321 322 322 320 318 318
309 308 309 309 307 307 306 306 307 307 308 311 313 315 317 318 318 317 317 317 319 320 321 321 320 321 322 322 322 322 321 320 320 320 320 320 322 323 323 321 321 320 319 319 319 320 320 321 321 320 319 319 320 321 321 320 320 319 319 320 320 318 318
310 310 310 310 308 307 306 306 306 306 307 309 312 315 316 316 316 316 316 316 317 318 319 320 321 321 322 322 322 322 321 320 320 320 321 321 321 322 321 319 319 319 319 319 320 320 319 318 317 316 313 310 310 312 313 315 315 314 315 316 317 318 318
311 310 311 310 308 307 306 306 305 306 306 306 309 312 315 315 314 314 315 314 314 313 314 315 316 318 320 320 320 321 321 320 319 319 320 320 320 319 318 317 317 317 317 319 320 319 316 313 312 311 308 306 306 307 309 311 312 313 315 315 315 316 317
312 311 310 310 309 307 306 305 305 305 306 306 306 308 310 310 309 310 309 309 308 307 308 307 308 309 311 310 312 315 317 318 317 318 319 319 317 314 311 312 314 315 315 316 317 314 310 307 306 305 305 306 307 308 311 313 314 315 316 316 317 317 317
315 313 310 309 309 308 305 305 305 304 305 305 306 306 306 306 306 306 306 306 306 306 306 306 305 306 305 305 305 306 309 311 312 313 313 312 310 306 305 307 309 310 310 310 309 307 305 304 304 304 304 305 305 306 311 315 315 315 316 316 318 318 319
315 313 311 309 310 309 306 305 305 305 305 305 305 306 306 306 306 306 306 306 306 306 306 306 306 306 306 306 306 305 305 306 306 306 306 306 305 305 304 304 304 305 305 305 304 303 303 303 303 304 304 304 303 304 309 315 315 315 315 316 317 318 319
315 312 310 310 311 310 307 306 306 306 306 306 306 306 306 306 306 306 306 306 306 306 306 306 306 306 306 306 306 305 305 305 305 305 305 305 304 305 304 304 303 303 303 303 303 303 303 302 302 303 302 303 303 303 307 313 315 315 315 315 316 317 318
316 312 311 310 311 311 308 307 307 308 308 308 307 306 306 306 306 306 306 306 306 306 306 306 306 306 306 306 305 305 305 305 305 305 305 304 304 304 304 303 303 303 303 303 303 303 303 302 302 302 302 302 302 302 304 309 313 313 313 313 315 316 317
317 314 311 311 311 312 311 309 309 309 309 309 308 308 308 307 307 307 306 306 306 306 306 306 306 306 306 306 305 305 305 305 305 305 305 304 304 304 304 304 304 304 304 303 303 303 303 302 302 302 302 302 303 303 302 303 306 306 306 307 310 313 314
318 315 313 312 312 313 313 313 313 311 310 310 309 309 309 308 308 308 307 307 307 306 307 306 306 306 306 306 306 306 305 305 305 305 306 305 305 305 305 305 305 305 305 305 304 304 303 303 303 304 304 304 304 304 304 304 304 304 304 304 304 306 308
318 316 314 313 313 314 314 314 315 314 313 311 311 310 311 310 310 309 308 308 308 307 307 307 307 307 306 306 306 306 307 306 306 306 307 307 307 307 307 307 307 307 307 306 306 306 305 305 306 306 306 306 306 306 306 306 306 306 305 305 304 304 304
318 317 315 314 314 314 314 315 315 316 314 313 312 312 313 313 312 312 310 310 310 310 309 309 308 308 307 307 307 307 307 307 307 307 307 307 307 308 308 308 308 308 308 308 308 308 308 308 308 308 308 308 307 306 306 306 306 307 307 306 306 305 304
318 317 316 314 314 314 315 315 315 316 315 314 314 314 314 315 315 315 314 313 314 314 313 313 312 310 310 309 308 308 307 308 308 307 308 308 307 308 308 307 307 308 308 309 309 309 310 309 309 309 308 308 307 306 306 306 306 307 307 307 306 305 304
318 317 316 316 315 315 315 315 315 316 316 314 315 315 316 316 316 316 316 315 315 316 316 316 316 315 315 314 313 312 310 309 309 308 308 308 308 308 308 308 307 307 307 308 308 308 309 309 309 309 308 307 307 306 305 305 305 305 306 307 306 305 304
318 317 316 316 316 315 316 316 315 316 316 315 316 316 316 316 317 317 316 316 316 316 317 317 317 317 317 317 317 316 316 314 313 312 310 309 308 308 308 308 308 308 308 307 307 308 308 308 308 308 308 307 306 305 304 304 304 303 304 305 305 305 304
318 317 316 317 317 316 316 316 316 315 316 316 316 316 317 317 317 317 317 317 316 316 317 317 317 317 317 317 317 317 318 317 317 316 314 313 311 311 310 308 308 308 308 308 307 307 307 308 308 307 307 307 306 305 304 303 303 303 302 303 304 304 303
319 318 317 318 318 317 317 317 316 316 316 316 316 317 318 318 318 318 317 317 316 317 317 317 316 317 316 316 317 317 318 318 318 317 317 316 314 314 313 311 309 308 308 308 308 308 308 308 308 307 307 306 305 305 304 304 304 304 303 302 303 303 303
320 319 318 318 318 318 319 318 317 317 316 317 317 317 319 319 319 318 317 317 317 317 317 317 316 316 315 315 316 317 318 318 318 318 317 316 316 315 315 313 311 310 309 309 308 308 308 308 308 307 306 306 305 305 305 305 305 305 304 303 302 302 302
320 320 319 319 318 318 318 318 318 319 318 318 318 318 319 319 319 318 317 317 317 317 317 317 316 315 315 315 315 316 317 317 317 318 317 317 316 315 315 314 313 311 311 310 309 308 308 308 307 307 306 306 306 306 306 306 305 304 303 302 301 300 300
320 320 319 319 318 318 318 318 318 319 319 319 319 319 318 318 319 318 318 317 317 317 317 317 315 314 313 314 314 314 313 314 317 318 317 317 317 316 315 314 313 312 311 311 310 309 308 308 307 307 307 306 306 307 306 305 304 303 302 301 299 299 299
321 320 319 318 317 317 317 317 318 318 318 318 318 318 317 317 317 317 318 318 318 318 318 316 314 312 313 314 314 314 313 315 317 318 317 317 317 316 315 315 314 313 312 312 311 310 309 308 308 308 307 307 307 306 305 304 303 302 300 299 298 298 298
320 319 318 318 317 317 317 318 318 318 318 318 317 316 316 316 316 316 317 317 316 317 316 315 314 313 315 315 315 316 316 316 317 318 318 317 317 316 315 315 314 313 312 312 311 311 310 309 308 308 308 308 308 307 305 303 301 300 299 298 298 297 297
319 317 318 318 317 317 317 317 317 317 317 316 315 314 314 316 316 315 315 315 314 314 314 314 314 314 315 316 316 317 317 317 317 317 318 318 317 316 315 314 314 313 313 312 312 311 310 309 308 308 308 308 308 307 305 303 301 300 299 298 298 297 297
316 316 317 317 315 314 314 313 314 314 314 313 312 312 312 312 312 312 313 314 315 315 315 315 314 314 314 316 317 318 318 318 317 317 318 318 317 315 314 314 313 313 312 312 312 311 310 309 309 309 308 308 308 307 306 303 301 300 299 299 298 297 297
311 312 314 314 312 311 310 310 310 311 312 312 312 312 312 311 311 312 313 315 315 315 316 315 315 315 315 316 317 318 319 319 319 318 318 318 317 315 314 314 313 312 312 312 312 311 309 309 309 309 309 308 307 306 305 303 302 300 300 299 299 298 297
309 310 311 311 310 309 309 310 310 310 311 311 311 312 313 313 313 314 314 314 314 314 314 314 314 313 312 312 312 313 315 317 319 319 318 318 317 316 315 314 313 312 311 311 311 310 308 308 308 308 307 307 306 305 303 302 301 300 300 300 299 298 298
309 309 309 309 310 310 310 310 310 310 310 311 312 313 314 314 314 314 313 313 313 313 312 310 309 307 306 306 306 308 312 315 317 318 318 317 316 315 314 313 312 311 311 310 310 308 307 306 306 306 305 305 304 303 302 301 301 300 300 300 299 299 298
308 309 309 309 309 308 306 306 306 306 307 309 311 312 312 311 311 311 311 311 311 311 310 308 306 304 303 302 302 305 309 313 316 317 317 316 315 314 313 312 311 311 310 309 308 306 305 305 305 305 304 303 303 302 301 301 301 300 300 300 299 299 298
309 308 309 308 306 303 302 302 303 303 303 304 304 305 306 306 306 306 307 308 309 310 310 308 306 304 303 301 302 303 305 308 311 314 315 315 314 313 312 311 310 310 308 307 305 305 305 305 305 304 303 302 302 301 301 301 300 300 300 300 299 299 298
307 308 308 306 304 303 302 302 302 302 302 302 303 304 304 305 306 306 306 307 308 309 310 309 307 306 305 304 303 304 305 308 310 312 313 313 312 311 309 309 309 309 307 306 305 305 305 305 304 303 302 302 301 301 301 301 300 300 300 299 299 298 298
307 307 307 306 306 305 304 303 302 302 302 302 302 304 305 306 307 308 308 309 309 309 309 309 309 309 308 307 306 306 307 310 312 312 312 311 310 309 309 309 309 308 307 306 306 306 305 304 303 303 302 302 301 301 301 301 300 300 299 298 298 297 296
308 307 307 307 306 305 305 304 304 303 303 302 301 302 304 307 308 309 310 310 310 310 309 309 310 310 310 309 308 307 307 309 311 312 311 310 310 309 309 308 308 307 306 306 305 304 304 303 303 302 302 301 301 301 300 300 299 298 298 297 296 295 295
306 306 306 306 306 306 306 305 305 304 304 303 303 302 302 304 306 308 309 310 310 310 310 310 310 310 310 310 309 308 307 307 309 310 310 310 309 308 308 307 306 306 305 304 304 303 302 302 301 301 300 300 300 299 299 298 297 296 296 295 294 294 294
305 305 305 305 305 306 307 307 307 306 306 304 304 304 303 302 302 304 307 308 310 310 310 310 311 311 310 310 309 308 307 306 307 308 308 308 308 307 306 305 304 304 303 302 302 301 300 300 300 300 299 299 298 297 296 295 295 294 294 294 294 294 293
305 304 304 304 304 305 307 307 307 307 306 305 305 304 304 303 302 302 305 307 309 310 310 311 311 310 310 310 309 308 306 305 305 305 306 307 307 306 305 304 303 302 302 301 300 300 300 300 300 298 297 296 295 294 294 294 294 294 294 294 294 293 293
305 304 304 304 304 304 305 305 305 304 304 304 304 304 303 303 302 304 306 309 310 310 310 310 310 310 310 309 308 307 305 305 305 305 305 306 305 304 303 303 302 301 301 300 299 299 298 297 296 295 295 294 294 294 294 294 294 294 293 293 292 292 291
Wind_Speed
9 11 12 10 9 9 9 9 9 9 8 8 9 10 10 8 6 5 4 4 5 7 8 8 7 6 7 8 7 6 5 5 7 8 8 8 8 8 7 7 7 7 8 8 8 7 7 9 8 6 6 6 5 4 5 5 6 7 8 9 10 11 13
11 13 13 10 10 9 9 9 9 9 10 10 9 9 10 9 8 6 6 5 5 6 7 6 5 5 6 7 6 5 3 4 6 7 7 8 7 6 5 6 5 5 5 5 5 4 4 4 4 4 5 6 7 6 6 7 7 7 8 7 8 9 10
14 14 12 10 10 10 10 10 10 10 10 10 10 11 11 10 9 8 7 6 5 5 6 6 5 6 6 6 6 5 4 3 4 4 4 5 5 4 4 4 4 3 3 3 3 2 2 3 5 7 9 10 8 6 6 8 7 5 5 5 5 5 7
14 14 13 12 11 11 11 12 12 12 11 11 10 11 10 9 8 7 5 5 5 5 5 5 5 6 5 4 4 4 4 3 3 3 3 4 4 3 3 3 3 3 3 3 3 3 6 8 10 11 11 11 9 7 6 5 3 2 1 1 2 2 4
12 13 13 12 12 13 13 14 14 13 13 12 11 10 10 8 7 6 5 5 6 6 5 5 4 4 4 4 5 5 5 4 3 3 3 3 3 2 3 4 4 4 4 5 6 8 10 11 11 11 11 9 7 7 6 5 5 3 3 3 3 1 1
10 11 11 12 13 14 14 15 15 14 14 14 12 11 10 9 8 8 8 8 8 9 9 9 9 9 8 8 7 6 6 6 5 5 4 4 3 2 2 3 4 5 6 7 7 8 8 8 7 8 8 8 8 7 4 5 5 4 4 6 6 4 2
11 11 12 12 14 15 15 15 15 15 15 15 14 13 11 11 10 9 9 9 8 8 8 8 9 10 9 8 8 8 7 6 5 4 3 3 2 2 2 2 2 3 4 4 5 5 5 5 5 6 6 6 6 5 3 2 2 2 2 5 6 4 3
12 12 13 13 14 16 17 16 17 17 17 16 15 14 13 12 11 10 9 9 9 8 8 8 8 8 8 7 6 6 5 5 5 4 3 3 3 2 1 1 0 1 1 2 2 3 3 4 5 5 6 6 4 3 2 2 1 1 1 2 1 1 2
15 14 15 15 15 17 19 19 19 18 17 17 16 14 14 12 12 11 10 9 9 9 9 9 8 7 6 5 5 5 5 5 5 4 4 5 4 3 3 2 2 1 1 1 1 2 3 4 6 6 8 8 7 6 4 1 2 3 3 4 4 3 3
19 17 16 17 17 18 19 19 19 18 17 17 15 14 14 13 12 11 11 10 9 9 9 9 8 7 6 5 5 6 6 6 6 6 6 6 5 5 5 4 3 3 3 3 3 4 4 5 6 7 8 9 9 9 7 5 3 3 5 6 7 7 7
22 18 16 17 18 18 19 18 18 17 16 16 15 14 13 12 12 11 10 9 9 8 8 8 7 6 5 5 5 5 5 5 5 6 6 6 6 6 5 4 4 4 4 5 5 5 5 4 5 7 8 9 10 10 9 10 9 7 7 7 8 9 11
24 21 17 17 18 19 19 19 18 17 16 15 15 14 12 11 10 9 9 9 8 8 7 6 6 6 5 4 4 5 5 5 4 4 4 4 4 4 4 3 3 3 4 4 4 5 5 4 5 6 6 7 9 10 11 12 12 10 10 10 9 9 11
26 24 20 18 19 20 20 19 19 17 16 15 14 13 12 10 9 8 8 7 7 6 6 5 4 4 4 3 3 3 2 3 3 2 2 1 1 1 1 1 0 1 2 2 3 4 4 5 5 5 6 7 8 10 11 14 15 14 12 13 13 11 12
28 26 23 21 20 20 21 21 20 19 17 14 13 13 12 10 10 9 8 7 6 6 6 5 4 3 2 2 1 0 1 1 1 1 2 2 2 2 2 2 3 3 2 1 1 2 3 4 5 5 6 7 8 10 12 14 17 18 15 15 16 15 14
29 28 26 24 22 22 23 22 21 21 19 15 14 13 12 11 10 9 8 7 7 7 7 6 5 3 2 2 2 3 4 4 4 4 5 4 4 4 5 5 5 6 5 4 3 3 4 4 4 5 6 7 8 10 13 15 17 20 20 18 18 17 17
31 32 28 25 25 25 26 26 25 23 21 17 15 14 12 12 11 10 9 8 8 7 6 4 3 1 1 2 3 5 6 7 7 7 8 7 7 7 8 8 8 8 7 6 6 5 5 6 6 7 7 8 9 10 13 15 17 20 22 22 21 20 20
32 32 28 26 27 28 28 29 28 25 22 20 18 17 15 14 13 12 11 10 10 8 6 4 3 3 3 4 6 7 8 9 9 9 10 10 10 10 11 11 11 11 9 8 7 7 7 7 7 7 8 8 9 11 13 15 17 18 21 23 22 22 21
31 30 28 28 30 31 33 34 32 28 24 22 21 20 19 18 17 15 13 12 10 8 6 5 6 7 8 9 9 10 11 12 12 12 12 12 12 12 12 13 13 14 12 10 9 9 8 8 8 7 8 9 10 12 14 15 17 17 19 22 23 22 21
28 29 30 32 32 30 30 31 31 28 26 24 22 22 21 20 18 16 13 12 11 10 9 8 10 13 14 14 14 13 13 15 16 17 16 15 15 15 14 14 14 15 15 13 12 11 10 9 9 8 9 10 12 13 15 16 17 18 19 20 22 22 21
29 29 29 29 29 26 22 22 21 21 24 26 27 26 23 21 18 15 13 13 13 13 12 12 14 17 17 17 16 16 15 17 19 21 20 19 18 18 17 16 17 17 16 15 14 13 11 10 10 10 10 11 12 14 16 17 17 18 19 20 20 21 21
27 27 25 23 22 20 20 20 17 15 19 24 25 24 20 17 16 15 14 14 15 15 14 15 18 20 19 17 17 17 18 19 21 24 25 23 21 21 20 19 19 19 17 17 16 15 13 12 11 11 12 12 13 15 16 17 18 18 19 19 19 19 20
20 19 19 20 17 15 17 20 20 20 21 22 20 18 16 16 15 15 16 17 18 18 19 20 20 19 17 17 18 19 21 23 23 24 26 27 26 24 23 23 22 21 20 18 18 17 15 14 13 13 13 13 15 16 17 18 18 17 17 17 18 19 20
21 17 16 19 20 20 21 23 23 23 23 22 19 17 18 19 17 17 18 19 20 21 22 21 20 18 17 18 19 20 23 25 26 26 26 28 30 28 27 26 25 23 22 21 20 20 18 16 16 15 14 15 16 18 18 18 17 17 17 18 19 20 21
23 23 20 18 18 19 20 20 20 20 20 19 18 17 18 17 16 16 17 17 17 18 18 17 17 17 17 17 18 19 22 24 26 27 27 28 31 31 29 28 27 26 25 24 22 21 20 18 16 16 16 17 18 19 19 18 18 19 20 21 21 22 24
18 20 19 17 16 16 15 15 15 16 16 15 15 15 15 15 15 15 16 15 15 15 15 16 17 18 18 18 18 20 21 22 24 26 27 28 30 31 30 30 29 29 28 25 23 22 20 18 16 17 18 19 21 22 21 20 20 20 22 23 25 25 26
16 17 17 16 15 13 11 11 11 12 13 12 12 13 13 13 14 14 14 14 14 15 16 17 18 18 19 20 20 20 21 21 23 24 25 27 30 31 30 31 31 31 29 26 23 23 21 18 17 19 20 21 22 23 23 22 21 22 23 25 27 28 28
15 16 15 14 13 10 9 9 9 9 10 11 11 11 11 12 13 13 13 13 14 16 17 18 18 19 21 22 23 22 21 21 22 22 22 25 29 31 31 31 31 31 29 26 24 22 20 18 18 20 21 23 23 23 22 21 21 23 24 26 28 30 30
15 14 14 13 13 11 10 10 11 11 12 12 12 11 11 12 12 13 13 13 14 15 16 17 17 18 20 21 21 21 20 19 19 19 20 24 28 29 28 28 29 29 26 23 22 21 19 18 20 21 22 23 23 22 21 21 22 24 26 28 30 31 32
14 15 15 14 13 12 12 13 13 13 13 13 14 13 13 13 13 14 14 14 15 15 15 15 15 16 17 18 18 17 16 15 14 15 17 22 25 26 25 26 28 28 24 22 21 20 19 20 21 23 23 23 23 21 20 21 24 26 28 30 31 33 34
13 13 14 12 10 9 10 11 11 11 10 10 10 10 10 10 10 11 12 13 14 14 15 15 15 14 14 15 15 15 14 13 12 12 15 19 23 25 26 27 27 24 21 20 20 20 21 22 23 24 24 23 23 21 21 23 25 27 29 31 32 33 34
12 12 12 10 8 6 6 6 8 9 8 8 8 9 9 8 9 10 11 12 13 14 15 16 15 14 13 13 13 13 13 12 12 12 14 17 20 23 24 24 23 21 21 21 22 23 24 23 23 23 24 23 23 22 23 25 27 28 30 32 33 33 34
12 10 9 8 7 5 5 5 6 7 7 7 8 9 10 10 11 11 13 14 15 16 17 17 17 15 15 14 13 13 12 11 11 13 15 17 20 22 22 22 22 23 23 24 24 24 24 23 23 23 23 24 24 25 26 28 30 31 32 34 35 36 37
9 8 8 7 6 6 7 7 7 7 6 7 8 10 11 12 12 13 14 16 17 18 18 19 18 17 16 16 15 14 12 11 12 14 15 17 19 21 22 22 23 24 24 24 24 24 23 23 23 23 23 24 25 27 28 30 32 34 36 37 37 37 37
8 8 8 8 8 9 9 9 9 8 8 10 11 12 12 13 14 14 14 16 17 19 20 20 19 18 17 17 16 15 13 12 12 14 15 17 18 19 20 21 21 22 23 23 23 23 23 22 22 22 23 25 27 29 31 33 35 36 36 36 36 35 33
9 8 9 9 10 10 11 11 12 12 13 14 15 15 15 14 15 15 16 17 18 20 21 20 19 18 17 16 16 15 13 12 12 14 15 17 18 19 20 20 20 21 21 21 22 22 21 21 22 24 26 28 29 31 32 34 34 35 34 34 32 32 31
12 11 10 10 10 11 11 11 13 14 15 17 17 18 18 17 17 17 17 17 18 19 20 19 18 16 15 16 16 15 13 12 12 13 15 16 18 19 19 20 20 20 20 20 21 22 23 24 26 27 28 29 29 30 31 32 32 31 31 30 30 30 30
15 15 15 14 13 13 12 12 13 14 15 17 18 19 20 20 20 18 17 17 17 18 18 18 17 17 17 16 16 15 13 12 12 14 15 16 17 18 19 20 21 21 21 22 23 25 26 26 27 27 27 28 29 30 30 29 28 28 28 28 29 30 30
Wind_Direction
210 175 153 142 135 133 133 136 143 151 162 170 176 184 185 184 179 168 166 153 148 160 165 167 166 163 171 174 174 178 184 195 209 221 227 229 232 235 237 239 246 264 275 275 276 280 286 293 298 289 269 270 281 293 293 282 280 284 285 282 284 279 264
189 169 156 148 146 147 139 132 132 133 143 156 161 161 163 170 177 181 181 167 145 148 159 166 163 159 164 166 159 155 167 186 197 210 218 218 220 222 225 229 236 250 257 257 255 253 266 291 307 306 285 274 269 268 275 276 278 295 305 301 301 293 265
176 171 164 161 159 154 142 131 127 124 128 140 153 157 155 160 168 172 173 174 174 167 168 169 161 155 152 151 147 140 144 148 154 175 195 198 197 192 192 203 216 230 239 240 227 227 273 310 310 312 314 310 304 293 287 288 293 315 328 320 320 302 264
174 179 175 173 169 157 143 133 127 126 125 127 138 152 160 165 166 164 167 174 183 192 196 194 190 191 189 185 179 169 167 150 131 137 151 156 154 160 189 216 236 245 253 253 242 269 303 309 303 304 313 320 327 338 345 344 345 359 5 330 326 292 248
178 188 185 179 172 158 144 135 130 128 128 129 133 140 149 151 141 131 130 128 128 132 136 134 138 155 161 163 171 179 191 193 175 172 177 177 190 242 264 261 256 254 263 265 270 288 303 310 307 307 316 326 339 358 21 59 78 69 67 56 29 35 192
185 197 193 183 174 159 146 137 131 127 126 128 131 133 135 134 128 123 120 115 115 115 113 111 107 105 106 106 113 126 147 164 170 177 190 203 216 242 259 249 250 255 261 266 275 289 302 313 314 311 316 322 335 359 40 96 92 73 70 64 55 54 84
188 202 198 187 175 160 147 135 126 122 120 122 126 129 129 129 129 126 121 117 116 113 109 110 108 103 99 97 98 102 113 125 131 141 157 164 153 130 142 194 237 253 262 270 279 291 303 312 314 315 322 324 333 2 45 102 102 97 89 68 64 63 71
193 202 198 190 175 160 149 137 129 124 120 120 122 124 126 127 127 124 121 118 114 110 107 109 109 106 102 98 97 96 99 105 107 112 118 113 108 112 131 151 160 234 271 293 298 314 328 335 338 341 350 357 4 27 65 145 199 283 341 27 53 55 54
202 204 198 188 174 161 153 142 135 130 125 122 122 123 124 124 123 121 120 117 111 108 109 111 110 104 99 96 91 87 88 94 95 95 97 98 101 103 100 101 109 124 108 38 10 7 5 0 359 358 1 7 10 18 38 134 223 281 306 302 281 279 306
208 211 204 189 175 167 161 151 146 143 136 129 124 124 125 124 125 122 121 119 112 106 106 108 109 104 97 90 85 82 81 82 81 83 85 85 92 95 87 84 89 91 80 55 29 21 17 11 9 6 8 11 11 10 11 4 338 317 320 314 297 281 279
212 214 212 200 185 177 173 167 162 157 147 138 132 129 126 124 126 126 124 121 115 108 103 103 107 107 101 91 85 82 82 84 82 81 79 73 78 87 84 81 80 76 68 49 27 17 16 18 22 21 20 18 16 12 3 354 348 345 341 332 318 303 291
212 214 214 210 200 191 186 183 178 172 162 152 143 137 133 125 124 128 127 124 121 120 117 112 110 110 109 102 93 88 89 96 95 85 82 76 72 78 80 80 79 76 72 54 32 18 13 10 14 23 25 15 7 2 355 346 340 341 344 338 336 329 314
209 210 209 210 209 201 196 194 190 186 179 168 156 148 144 138 133 133 133 131 128 129 130 128 124 118 117 116 109 102 93 98 101 95 98 112 93 68 70 76 86 109 101 83 56 27 14 2 358 7 12 5 358 349 343 339 332 334 343 338 334 336 325
207 208 207 210 212 205 202 202 199 197 193 184 173 163 158 155 151 146 144 144 140 134 129 121 111 105 97 91 101 178 286 280 217 231 238 237 251 275 277 268 262 258 262 313 34 24 14 358 349 357 359 352 349 340 334 334 330 329 337 338 332 332 329
205 206 206 210 214 210 207 206 204 203 202 197 188 178 172 170 167 166 166 165 156 143 132 120 107 89 62 31 350 320 305 294 280 270 268 264 258 266 274 274 269 265 272 290 305 330 347 340 331 340 348 343 339 334 330 328 325 324 328 332 332 330 329
206 205 205 211 215 213 210 207 206 206 206 205 200 194 190 188 186 186 188 190 181 166 156 149 139 106 354 317 313 311 306 301 296 288 287 285 278 276 279 279 276 270 270 280 289 300 316 321 319 323 328 328 326 325 323 321 319 318 319 323 328 327 327
205 203 205 212 216 217 215 211 208 207 209 210 206 203 202 199 197 197 200 203 200 196 191 192 217 265 282 288 289 292 294 293 293 291 289 288 286 286 287 284 280 278 274 276 282 286 293 300 301 303 308 313 317 317 316 314 314 314 314 316 320 322 322
205 205 206 209 212 214 214 213 210 208 210 213 210 208 206 204 205 209 214 218 220 220 219 227 253 274 282 286 284 283 285 283 284 286 285 284 283 285 288 287 282 280 278 278 282 283 283 288 289 291 298 305 309 311 311 310 310 310 311 312 314 316 317
209 210 211 212 213 211 209 210 210 208 210 212 211 210 209 209 212 217 224 230 235 239 243 257 279 286 283 281 278 273 273 275 278 279 279 279 278 278 282 283 278 277 278 278 280 282 282 284 287 287 291 297 301 302 303 305 307 309 310 310 311 313 314
208 207 208 210 208 202 197 202 207 209 209 209 208 206 206 209 213 222 235 244 251 257 257 266 283 285 276 272 270 265 264 270 272 273 275 275 273 273 274 275 273 272 274 275 276 280 281 279 279 279 281 286 292 297 300 304 307 308 309 309 310 311 312
201 201 199 196 194 193 194 199 207 213 212 211 209 205 204 209 214 224 240 252 258 259 257 268 281 281 272 266 265 263 266 270 266 265 269 271 271 269 268 270 270 269 272 274 275 278 279 277 278 277 277 282 289 294 299 303 306 307 307 309 310 311 311
197 196 195 197 203 214 217 215 219 223 219 213 209 210 221 231 231 232 239 248 252 252 255 267 277 275 267 264 265 264 267 268 264 261 263 266 267 267 265 266 267 267 269 271 273 275 275 277 278 276 278 287 294 297 299 303 306 306 307 309 311 312 311
217 221 219 218 223 227 225 221 219 220 219 218 223 235 244 247 245 239 240 248 253 255 258 265 270 268 267 268 270 270 269 269 267 265 263 263 263 262 262 263 264 264 265 266 269 270 272 276 278 278 284 294 300 301 303 306 307 307 309 313 316 318 317
224 229 227 223 218 213 211 213 217 222 227 231 237 240 238 239 240 239 243 252 256 258 259 261 264 266 267 270 272 273 273 271 269 267 266 264 261 258 257 259 260 260 261 263 265 266 268 273 276 281 290 298 302 303 305 308 309 310 313 318 321 323 323
204 210 210 203 198 197 204 217 226 230 232 230 228 230 233 238 242 243 248 252 252 253 255 255 258 261 264 268 271 272 273 272 271 268 268 265 259 254 254 256 257 257 257 259 263 265 267 271 278 289 296 299 300 301 303 305 307 310 315 319 320 321 322
173 185 193 193 196 203 212 221 224 220 217 216 220 229 234 236 240 245 249 251 252 254 255 258 262 265 268 270 270 270 271 273 273 271 270 267 260 254 254 255 253 253 254 257 261 263 266 273 283 290 293 293 294 296 299 303 306 310 313 315 315 315 317
172 179 187 193 201 206 205 207 211 212 215 222 229 233 234 235 241 247 250 252 256 258 261 266 270 271 272 272 271 271 271 272 275 275 272 267 261 257 255 254 252 252 254 257 260 261 266 275 283 285 286 288 290 293 297 302 305 307 307 307 307 309 312
180 182 185 188 192 196 203 212 219 224 226 231 235 236 239 244 248 252 255 258 260 264 268 272 275 277 278 277 276 276 276 275 277 277 271 263 259 256 251 247 247 248 249 252 257 261 267 274 278 280 282 284 287 290 294 299 301 300 299 301 302 305 308
189 190 191 193 197 202 211 216 219 224 227 230 234 236 239 245 250 253 255 258 263 268 274 278 284 287 285 284 284 282 281 280 281 278 268 258 252 249 244 240 242 245 248 249 251 256 263 269 274 277 278 279 281 284 290 296 297 296 296 297 299 300 302
201 200 201 205 207 203 199 197 201 208 213 219 229 237 242 249 255 258 258 261 266 272 279 289 296 298 296 295 295 294 294 295 293 287 273 258 248 243 239 236 238 243 248 247 247 254 262 269 275 277 276 276 277 281 289 292 292 292 292 292 293 294 296
217 217 217 215 205 195 189 193 197 198 202 211 222 234 246 258 266 271 273 274 276 280 286 294 299 303 307 310 309 307 304 303 300 290 275 258 244 236 232 232 237 244 247 247 251 258 265 271 275 276 275 274 276 281 286 286 285 285 285 285 286 288 289
227 225 223 215 206 216 235 233 221 214 217 227 232 238 246 254 262 270 275 278 282 285 290 295 297 299 304 310 315 313 303 292 286 277 266 254 243 238 238 243 248 249 248 250 257 262 265 270 272 272 271 272 275 280 282 282 283 284 284 285 286 288 289
220 220 219 220 231 251 254 243 234 236 245 253 257 255 251 250 254 261 268 272 277 282 286 289 290 291 294 299 306 308 299 284 276 272 267 260 255 251 252 254 255 254 253 255 259 261 263 267 269 269 271 274 277 280 282 284 286 288 289 291 292 293 294
193 200 212 224 240 252 253 247 243 249 260 268 273 274 270 265 262 262 265 267 268 273 277 279 280 282 284 289 296 300 294 283 274 272 270 267 264 262 260 257 254 254 254 255 258 260 262 265 268 271 274 277 279 281 284 285 287 289 291 292 294 295 296
212 214 218 221 225 230 238 247 249 254 264 270 275 279 282 282 276 270 269 269 267 267 269 270 272 274 278 285 291 292 288 280 274 273 272 269 267 264 261 258 256 255 255 256 258 260 263 268 273 276 277 279 281 284 286 287 288 289 291 293 295 298 301
241 246 248 242 232 223 224 234 241 249 258 264 269 275 281 286 283 277 274 272 269 267 266 267 270 273 277 282 283 282 280 275 270 271 273 270 267 264 261 261 261 260 259 260 262 267 272 276 278 279 281 283 286 287 287 288 289 291 294 297 301 304 306
251 255 255 251 243 234 231 236 245 255 262 266 270 275 279 281 280 278 274 270 268 269 271 273 274 276 278 278 274 273 273 270 267 269 269 267 265 264 262 261 261 261 262 266 270 274 278 280 282 284 286 287 287 288 289 291 294 298 301 303 304 305 305